Regional Weather Roundup
Issued by NWS Boston, MA

Home | Current Version | Previous Version | Text Only | Print | Product List | Glossary On
Versions: 1 2 3 4 5 6 7 8 9 10 11 12 13 14 15 16 17 18 19 20 21 22 23 24 25 26 27 28 29 30 31 32 33 34 35 36 37 38 39 40 41 42 43 44 45 46 47 48 49 50
000
ASUS41 KBOX 270110
RWRBOX

REGIONAL WEATHER ROUNDUP
NATIONAL WEATHER SERVICE TAUNTON MA
900 PM EDT FRI MAY 26 2017

NOTE:  "FAIR" INDICATES FEW OR NO CLOUDS BELOW 12,000 FEET WITH NO
SIGNIFICANT WEATHER AND/OR OBSTRUCTIONS TO VISIBILITY.

MAZALL-270200-
EASTERN MASSACHUSETTS

CITY           SKY/WX    TMP DP  RH WIND       PRES   REMARKS
BOSTON         DRIZZLE   53  52  96 E8        29.69R FOG
BEVERLY        LGT RAIN  55  53  93 NE3       29.68R FOG
LAWRENCE       CLOUDY    56  53  90 NE3       29.70R
BEDFORD        DRIZZLE   55  52  89 NE12      29.67R
BLUE HILL        N/A     55  54  96 CALM      29.67R
NORWOOD        CLOUDY    57  57 100 CALM      29.67R
MARSHFIELD     CLOUDY    54  54 100 CALM      29.69R
PLYMOUTH       CLOUDY    53  51  93 NE7       29.69R
TAUNTON        CLOUDY    57  55  93 CALM      29.67R
NEW BEDFORD    CLOUDY    56  55  97 CALM      29.67R
$$

MAZALL-270200-
CAPE COD AND THE ISLANDS

CITY           SKY/WX    TMP DP  RH WIND       PRES   REMARKS
FALMOUTH         N/A    N/A N/A N/A MISG        N/A
HYANNIS        CLOUDY    53  51  93 NE6       29.68R
CHATHAM        CLOUDY    54  52  93 CALM      29.69R
PROVINCETOWN   CLOUDY    50  49  96 CALM      29.70R
NANTUCKET      CLOUDY   N/A N/A N/A W7        29.69R
MARTHAS VNYRD  CLOUDY    57  55  93 CALM      29.68R
$$

MAZALL-270200-
CENTRAL AND WESTERN MASSACHUSETTS

CITY           SKY/WX    TMP DP  RH WIND       PRES   REMARKS
WORCESTER      CLOUDY    54  50  86 NW12      29.70R
FITCHBURG      CLOUDY    58  53  84 NW5       29.70R
ORANGE         CLOUDY    55  52  89 NW9       29.70R
SPRINGFIELD    MOCLDY    58  56  92 N3        29.70R
WESTFIELD      CLOUDY    59  55  87 NW7       29.71
NORTH ADAMS    CLOUDY    53  52  96 W5        29.75R
PITTSFIELD     LGT RAIN  53  50  89 NW3       29.74R
$$

RIZALL-270200-
RHODE ISLAND

CITY           SKY/WX    TMP DP  RH WIND       PRES   REMARKS
PROVIDENCE     CLOUDY    58  58 100 CALM      29.68R
NEWPORT        LGT RAIN  57  57 100 CALM      29.68R
BLOCK ISLAND   LGT RAIN  58  57  97 SW6       29.70R
SMITHFIELD     CLOUDY    56  55  97 NW5       29.69R
WESTERLY       CLOUDY    59  56  89 CALM      29.70R
$$

CTZALL-270200-
CONNECTICUT

CITY           SKY/WX    TMP DP  RH WIND       PRES   REMARKS
BRADLEY INTL   CLOUDY    61  54  77 NW8       29.72R
HARTFORD       CLOUDY    63  54  72 NW10G23   29.71R
BRIDGEPORT     CLOUDY    68  56  65 N12       29.71R
DANBURY        PTCLDY    61  57  87 N6        29.74R
GROTON         CLOUDY    58  56  93 W5        29.69R
NEW HAVEN      CLOUDY    64  57  78 NW8       29.71R
CHESTER        CLOUDY    61  59  94 NW5       29.71R
MERIDEN        CLOUDY    62  55  77 NW6       29.71R
WILLIMANTIC    CLOUDY    61  57  87 NW8       29.71R
OXFORD         MOCLDY    61  52  72 N9        29.72R
$$

MEZ002-015-021-024-NHZ003-005-008-011-012-014-VTZ005-008-270200-
NORTHERN NEW ENGLAND

CITY           SKY/WX    TMP DP  RH WIND       PRES   REMARKS
PORTLAND ME    CLOUDY    52  47  83 N8        29.68R
BANGOR ME      CLOUDY    49  47  93 N14       29.66R
CONCORD NH     CLOUDY    54  50  86 NE6       29.69R
MANCHESTER NH  LGT RAIN  54  50  86 NE5       29.68R FOG
NASHUA NH      CLOUDY    56  53  90 E5        29.69R
PORTSMOUTH NH  CLOUDY    55  49  80 N5        29.68R
JAFFREY NH     CLOUDY    54  53  97 VRB3      29.70R FOG
KEENE NH       CLOUDY    56  51  84 NW6       29.71R
BURLINGTON VT  CLOUDY    54  50  86 N8        29.76R
MT. WASHINGTON FOG       32  32 100 N13G20      N/A  VSB 1/8 WCI  22
$$

NYZ052-076-270200-
EASTERN NEW YORK

CITY           SKY/WX    TMP DP  RH WIND       PRES   REMARKS
ALBANY         DRIZZLE   57  54  89 NE3       29.75R
NEW YORK CITY  PTCLDY    70  52  52 NW18G24   29.72R
$$

ANZALL-270200-
MARINE OBSERVATIONS

STATION/POSITION TIME  TEMP    WIND        PRES    VSBY  WAVE
                       AIR SEA DIR/SP/G                  HT/PER
                 (UTC) (F)     (DEG/KT/KT) (MB)    (MI)  (FT/S)
BOSTON BUOY      0050   52 53   20/  4/  6 1004.4R         5/ 8
BUZZARDS BAY     0000   55     230/ 10/ 10 1004.9R
NANTUCKET SOUND  0050      54              1005.0R         1/ 5
MASS BAY-STELLWA 0004   50 50   50/  2/  2 1004.1R         3/ 8
ISLE OF SHOALS   0000   54     360/ 12/ 12 1004.3R
S OF BLOCK IS    0055      53                N/A           8/ 8
$$

......................KEY.........................
  SKY/WX - SKY CONDITION/PRESENT WEATHER
  TMP    - TEMPERATURE IN FAHRENHEIT
  DWPT   - DEWPOINT IN FAHRENHEIT
  RH     - RELATIVE HUMIDITY IN PERCENT
  WIND   - DIRECTION AND SPEED IN MPH
  PRES   - MEAN SEA LEVEL PRESSURE IN INCHES OF HG
  WCI    - WIND CHILL INDEX
  VSB    - VISIBILITY IN MILES
  HX     - HEAT INDEX
  TC     - TEMPERATURE IN CELSIUS
  VRB    - VARIABLE WIND DIRECTION
  N/A    - NOT AVAILABLE



USA.gov is the U.S. government's official web portal to all federal, state and local government web resources and services.